Date,TemperatureHighF,TemperatureAvgF,TemperatureLowF,DewpointHighF,DewpointAvgF,DewpointLowF,HumidityHigh,HumidityAvg,HumidityLow,PressureMaxIn,PressureMinIn,WindSpeedMaxMPH,WindSpeedAvgMPH,GustSpeedMaxMPH,PrecipitationSumIn
2013-3-18,30.8,30.8,30.8,-99.9,-99.9,-99.9,0,0,100,0.00,40.00,0,-999,0,0.00
2013-3-20,30.0,28.8,28.3,-99.9,-99.9,-99.9,0,0,100,28.62,28.59,0,-999,0,0.00
2013-3-21,30.6,29.7,28.9,-99.9,-99.9,-99.9,0,0,100,28.62,28.59,0,-999,0,0.00
2013-3-22,40.0,28.7,19.1,-99.9,-99.9,-99.9,0,0,100,28.72,28.59,0,-999,0,0.00
2013-3-23,54.0,36.0,27.9,-99.9,-99.9,-99.9,0,0,100,28.78,28.65,0,-999,0,0.00
2013-3-24,46.4,37.1,29.4,-99.9,-99.9,-99.9,0,0,100,28.84,28.68,0,-999,0,0.00
2013-3-25,48.3,37.8,28.5,-99.9,-99.9,-99.9,0,0,100,28.72,28.46,0,-999,0,0.00
2013-3-26,51.5,38.3,28.1,-99.9,-99.9,-99.9,0,0,100,28.75,28.52,0,-999,0,0.00
2013-3-27,69.8,38.8,23.4,-99.9,-99.9,-99.9,0,0,100,28.84,28.75,0,-999,0,0.00
2013-3-28,55.9,41.4,34.7,-99.9,-99.9,-99.9,0,0,100,28.97,28.84,0,-999,0,0.00
2013-3-29,44.7,35.8,30.9,-99.9,-99.9,-99.9,0,0,100,29.04,29.00,0,-999,0,0.00
2013-3-30,45.7,45.5,45.1,-99.9,-99.9,-99.9,0,0,100,29.00,29.00,0,-999,0,0.00
2013-3-31,60.1,41.9,25.8,-99.9,-99.9,-99.9,0,0,100,29.04,28.75,0,-999,0,0.00
2013-4-1,57.6,40.3,28.3,-99.9,-99.9,-99.9,0,0,100,28.78,28.49,0,-999,0,0.00
2013-4-2,42.7,30.3,25.1,-99.9,-99.9,-99.9,0,0,100,28.91,28.75,0,-999,0,0.00
2013-4-3,54.2,33.5,23.4,-99.9,-99.9,-99.9,0,0,100,29.10,28.88,0,-999,0,0.00
2013-4-4,62.0,38.6,21.5,-99.9,-99.9,-99.9,0,0,100,29.26,28.91,0,-999,0,0.00
2013-4-5,76.6,45.6,27.9,-99.9,-99.9,-99.9,0,0,100,28.94,28.68,0,-999,0,0.00
2013-4-6,62.2,39.0,25.6,-99.9,-99.9,-99.9,0,0,100,29.23,28.88,0,-999,0,0.00
2013-4-7,43.4,31.8,22.6,-99.9,-99.9,-99.9,0,0,100,29.20,28.81,0,-999,0,0.00
2013-4-8,52.4,36.5,25.0,-99.9,-99.9,-99.9,0,0,100,29.07,28.91,0,-999,0,0.00
2013-4-9,47.4,39.3,29.4,-99.9,-99.9,-99.9,0,0,100,28.97,28.78,0,-999,0,0.00
2013-4-23,64.2,62.7,61.4,-99.9,-99.9,-99.9,0,0,100,28.72,28.65,0,-999,0,0.00
2013-4-24,61.3,61.3,61.3,-99.9,-99.9,-99.9,0,0,100,28.68,28.68,0,-999,0,0.00
2013-4-25,61.4,48.8,37.0,-99.9,-99.9,-99.9,0,0,100,29.20,28.65,0,-999,0,0.00
2013-4-26,64.9,47.8,31.5,-99.9,-99.9,-99.9,0,0,100,29.36,29.16,0,-999,0,0.00
2013-4-27,71.9,50.4,30.4,-99.9,-99.9,-99.9,0,0,100,29.39,29.20,0,-999,0,0.00
2013-4-28,78.7,57.6,36.9,-99.9,-99.9,-99.9,0,0,100,29.26,29.04,0,-999,0,0.00
2013-4-29,66.5,57.5,51.2,-99.9,-99.9,-99.9,0,0,100,29.16,29.07,0,-999,0,0.00
2013-4-30,77.8,60.6,46.2,-99.9,-99.9,-99.9,0,0,100,29.23,29.13,0,-999,0,0.00
2013-5-1,82.8,61.2,39.0,-99.9,-99.9,-99.9,0,0,100,29.39,29.23,0,-999,0,0.00
2013-5-2,85.7,63.5,40.9,-99.9,-99.9,-99.9,0,0,100,29.39,29.20,0,-999,0,0.00
2013-5-3,74.4,61.3,47.7,-99.9,-99.9,-99.9,0,0,100,29.42,29.23,0,-999,0,0.00
2013-5-4,81.5,61.5,40.5,-99.9,-99.9,-99.9,0,0,100,29.29,29.10,0,-999,0,0.00
2013-5-5,81.2,60.1,38.1,-99.9,-99.9,-99.9,0,0,100,29.23,29.04,0,-999,0,0.00
2013-5-6,82.9,59.9,37.4,-99.9,-99.9,-99.9,0,0,100,29.20,29.00,0,-999,0,0.00
2013-5-7,86.9,64.6,43.2,-99.9,-99.9,-99.9,0,0,100,29.10,28.97,0,-999,0,0.00
2013-5-8,75.7,63.0,49.9,-99.9,-99.9,-99.9,0,0,100,29.10,28.94,0,-999,0,0.00
2013-5-9,67.7,60.2,49.8,-99.9,-99.9,-99.9,0,0,100,28.97,28.81,0,-999,0,0.00
2013-5-10,81.3,63.8,46.9,-99.9,-99.9,-99.9,0,0,100,28.94,28.78,0,-999,0,0.00
2013-5-11,67.4,63.5,55.4,-99.9,-99.9,-99.9,0,0,100,28.78,28.59,0,-999,0,0.00
2013-5-12,62.3,53.0,41.7,-99.9,-99.9,-99.9,0,0,100,28.78,28.59,0,-999,0,0.00
2013-5-13,50.5,43.1,39.5,-99.9,-99.9,-99.9,0,0,100,28.97,28.78,0,-999,0,0.00
2013-5-14,57.5,45.3,31.5,-99.9,-99.9,-99.9,0,0,100,29.04,28.91,0,-999,0,0.00
2013-5-15,61.6,47.0,30.5,-99.9,-99.9,-99.9,0,0,100,28.97,28.56,0,-999,0,0.00
2013-5-16,78.8,60.1,38.8,-99.9,-99.9,-99.9,0,0,100,28.78,28.62,0,-999,0,0.00
2013-5-17,70.3,56.5,44.2,-99.9,-99.9,-99.9,0,0,100,29.13,28.78,0,-999,0,0.00
2013-5-18,78.5,59.2,40.5,-99.9,-99.9,-99.9,0,0,100,29.23,29.13,0,-999,0,0.00
2013-5-19,63.5,53.7,43.5,-99.9,-99.9,-99.9,0,0,100,29.23,29.07,0,-999,0,0.00
2013-5-20,73.6,62.6,55.9,-99.9,-99.9,-99.9,0,0,100,29.10,28.88,0,-999,0,0.00
2013-5-21,88.0,71.5,55.8,-99.9,-99.9,-99.9,0,0,100,28.94,28.72,0,-999,0,0.00
2013-5-22,82.5,68.0,57.5,-99.9,-99.9,-99.9,0,0,100,28.88,28.75,0,-999,0,0.00
2013-5-23,76.5,69.0,60.4,-99.9,-99.9,-99.9,0,0,100,28.81,28.68,0,-999,0,0.00
2013-5-24,65.4,55.2,42.9,-99.9,-99.9,-99.9,0,0,100,28.88,28.59,0,-999,0,0.00
2013-5-25,45.2,42.8,39.8,-99.9,-99.9,-99.9,0,0,100,28.88,28.78,0,-999,0,0.00
2013-5-26,149.2,46.5,37.9,-99.9,-99.9,-99.9,0,0,100,29.04,28.75,0,-999,0,0.00
2013-5-27,72.3,52.8,32.9,-99.9,-99.9,-99.9,0,0,100,29.13,29.00,0,-999,0,0.00
2013-5-28,78.0,59.4,39.2,-99.9,-99.9,-99.9,0,0,100,29.16,29.04,0,-999,0,0.00
2013-5-29,79.6,66.0,56.7,-99.9,-99.9,-99.9,0,0,100,29.07,28.84,0,-999,0,0.00
2013-5-30,88.6,71.3,56.0,-99.9,-99.9,-99.9,0,0,100,29.07,28.94,0,-999,0,0.00
2013-5-31,93.6,76.3,58.7,-99.9,-99.9,-99.9,0,0,100,29.07,28.88,0,-999,0,0.00
2013-6-1,95.0,77.9,60.9,-99.9,-99.9,-99.9,0,0,100,28.94,28.78,0,-999,0,0.00
2013-6-2,91.0,75.3,66.3,-99.9,-99.9,-99.9,0,0,100,28.84,28.62,0,-999,0,0.00
2013-6-3,70.9,65.3,46.9,-99.9,-99.9,-99.9,0,0,100,28.84,28.72,0,-999,0,0.00
2013-6-4,71.6,56.4,40.6,-99.9,-99.9,-99.9,0,0,100,29.04,28.84,0,-999,0,0.00
2013-6-5,77.6,61.2,45.4,-99.9,-99.9,-99.9,0,0,100,29.13,29.00,0,-999,0,0.00
2013-6-6,76.7,62.4,49.1,-99.9,-99.9,-99.9,0,0,100,29.07,28.94,0,-999,0,0.00
2013-6-7,57.0,54.8,52.6,-99.9,-99.9,-99.9,0,0,100,28.97,28.72,0,-999,0,0.00
2013-6-8,65.1,58.2,51.9,-99.9,-99.9,-99.9,0,0,100,28.94,28.62,0,-999,0,0.00
2013-6-9,77.6,65.4,56.3,-99.9,-99.9,-99.9,0,0,100,29.10,28.94,0,-999,0,0.00
2013-6-10,70.0,60.5,52.3,-99.9,-99.9,-99.9,0,0,100,29.13,28.81,0,-999,0,0.00
2013-6-11,66.2,59.1,56.7,-99.9,-99.9,-99.9,0,0,100,28.81,28.49,0,-999,0,0.00
2013-6-12,68.4,59.5,52.9,-99.9,-99.9,-99.9,0,0,100,28.75,28.52,0,-999,0,0.00
2013-6-13,57.8,53.6,47.3,-99.9,-99.9,-99.9,0,0,100,28.78,28.59,0,-999,0,0.00
2013-6-14,74.7,61.0,50.3,-99.9,-99.9,-99.9,0,0,100,28.78,28.59,0,-999,0,0.00
2013-6-15,78.3,62.1,45.6,-99.9,-99.9,-99.9,0,0,100,28.91,28.78,0,-999,0,0.00
2013-6-16,75.6,60.2,46.9,-99.9,-99.9,-99.9,0,0,100,28.91,28.62,0,-999,0,0.00
2013-6-17,84.6,66.4,55.1,-99.9,-99.9,-99.9,0,0,100,28.84,28.72,0,-999,0,0.00
2013-6-18,66.9,59.5,50.6,-99.9,-99.9,-99.9,0,0,100,28.88,28.78,0,-999,0,0.00
2013-6-19,75.6,59.3,46.4,-99.9,-99.9,-99.9,0,0,100,29.10,28.84,0,-999,0,0.00
2013-6-20,81.0,61.8,42.4,-99.9,-99.9,-99.9,0,0,100,29.16,29.07,0,-999,0,0.00
2013-6-21,85.0,68.0,50.9,-99.9,-99.9,-99.9,0,0,100,29.20,29.10,0,-999,0,0.00
2013-6-22,89.8,71.1,55.5,-99.9,-99.9,-99.9,0,0,100,29.13,29.00,0,-999,0,0.00
2013-6-23,91.8,78.1,67.3,-99.9,-99.9,-99.9,0,0,100,29.07,28.88,0,-999,0,0.00
2013-6-24,90.0,74.5,65.1,-99.9,-99.9,-99.9,0,0,100,28.97,28.84,0,-999,0,0.00
2013-6-25,90.5,73.1,61.5,-99.9,-99.9,-99.9,0,0,100,28.94,28.68,0,-999,0,0.00
2013-6-26,75.5,70.2,65.0,-99.9,-99.9,-99.9,0,0,100,28.78,28.68,0,-999,0,0.00
2013-6-27,90.0,72.6,60.5,-99.9,-99.9,-99.9,0,0,100,28.75,28.56,0,-999,0,0.00
2013-6-28,81.3,71.4,65.1,-99.9,-99.9,-99.9,0,0,100,28.59,28.36,0,-999,0,0.00
2013-6-29,84.7,72.3,64.5,-99.9,-99.9,-99.9,0,0,100,28.62,28.40,0,-999,0,0.00
2013-6-30,88.3,73.3,61.7,-99.9,-99.9,-99.9,0,0,100,28.81,28.59,0,-999,0,0.00
2013-7-1,81.0,70.7,64.0,-99.9,-99.9,-99.9,0,0,100,28.97,28.81,0,-999,0,0.00
2013-7-2,84.4,74.9,69.3,-99.9,-99.9,-99.9,0,0,100,29.07,28.91,0,-999,0,0.00
2013-7-3,85.4,76.3,69.9,-99.9,-99.9,-99.9,0,0,100,29.13,29.00,0,-999,0,0.00
2013-7-4,93.3,80.4,70.0,-99.9,-99.9,-99.9,0,0,100,29.13,28.97,0,-999,0,0.00
2013-7-5,91.8,79.4,71.5,-99.9,-99.9,-99.9,0,0,100,29.10,28.94,0,-999,0,0.00
2013-7-6,86.9,75.7,67.1,-99.9,-99.9,-99.9,0,0,100,29.04,28.91,0,-999,0,0.00
2013-7-7,92.5,75.7,64.1,-99.9,-99.9,-99.9,0,0,100,28.97,28.81,0,-999,0,0.00
2013-7-8,83.9,75.6,71.0,-99.9,-99.9,-99.9,0,0,100,28.94,28.81,0,-999,0,0.00
2013-7-9,90.6,76.3,67.7,-99.9,-99.9,-99.9,0,0,100,29.00,28.88,0,-999,0,0.00
2013-7-10,134.7,74.6,68.5,-99.9,-99.9,-99.9,0,0,100,28.91,28.68,0,-999,0,0.00
2013-7-11,82.2,73.3,65.4,-99.9,-99.9,-99.9,0,0,100,28.88,28.65,0,-999,0,0.00
2013-7-12,89.1,72.5,59.6,-99.9,-99.9,-99.9,0,0,100,29.07,28.84,0,-999,0,0.00
2013-7-13,83.8,72.5,64.4,-99.9,-99.9,-99.9,0,0,100,29.16,29.04,0,-999,0,0.00
2013-7-14,90.4,77.9,68.9,-99.9,-99.9,-99.9,0,0,100,29.23,29.10,0,-999,0,0.00
2013-7-15,93.3,78.9,66.7,-99.9,-99.9,-99.9,0,0,100,29.13,29.00,0,-999,0,0.00
2013-7-16,92.5,78.0,64.8,-99.9,-99.9,-99.9,0,0,100,29.10,29.04,0,-999,0,0.00
2013-7-17,95.1,79.7,66.3,-99.9,-99.9,-99.9,0,0,100,29.10,28.88,0,-999,0,0.00
2013-7-18,94.3,81.7,72.0,-99.9,-99.9,-99.9,0,0,100,28.94,28.81,0,-999,0,0.00
2013-7-19,97.3,81.3,69.4,-99.9,-99.9,-99.9,0,0,100,28.84,28.62,0,-999,0,0.00
2013-7-20,87.9,74.3,64.6,-99.9,-99.9,-99.9,0,0,100,28.72,28.59,0,-999,0,0.00
2013-7-21,84.8,70.9,59.3,-99.9,-99.9,-99.9,0,0,100,28.88,28.72,0,-999,0,0.00
2013-7-22,87.7,72.9,62.7,-99.9,-99.9,-99.9,0,0,100,28.88,28.68,0,-999,0,0.00
2013-7-23,78.8,71.6,66.7,-99.9,-99.9,-99.9,0,0,100,28.72,28.43,0,-999,0,0.00
2013-7-24,81.6,68.2,55.7,-99.9,-99.9,-99.9,0,0,100,28.88,28.46,0,-999,0,0.00
2013-7-25,76.8,63.1,47.8,-99.9,-99.9,-99.9,0,0,100,28.94,28.84,0,-999,0,0.00
2013-7-26,141.5,65.1,58.1,-99.9,-99.9,-99.9,0,0,100,28.94,28.84,0,-999,0,0.00
2013-7-27,87.6,68.9,52.3,-99.9,-99.9,-99.9,0,0,100,28.91,28.81,0,-999,0,0.00
2013-7-28,79.2,68.2,60.4,-99.9,-99.9,-99.9,0,0,100,28.88,28.78,0,-999,0,0.00
2013-7-29,85.0,71.4,60.2,-99.9,-99.9,-99.9,0,0,100,28.97,28.78,0,-999,0,0.00
2013-7-30,80.7,66.2,53.0,-99.9,-99.9,-99.9,0,0,100,29.00,28.91,0,-999,0,0.00
2013-7-31,85.2,68.5,53.2,-99.9,-99.9,-99.9,0,0,100,29.04,28.88,0,-999,0,0.00
2013-8-1,78.2,65.1,57.2,-99.9,-99.9,-99.9,0,0,100,28.91,28.68,0,-999,0,0.00
2013-8-2,83.1,70.0,60.3,-99.9,-99.9,-99.9,0,0,100,28.75,28.65,0,-999,0,0.00
2013-8-3,80.0,66.5,56.1,-99.9,-99.9,-99.9,0,0,100,28.75,28.65,0,-999,0,0.00
2013-8-4,81.2,62.8,51.1,-99.9,-99.9,-99.9,0,0,100,28.81,28.68,0,-999,0,0.00
2013-8-5,79.4,62.3,49.1,-99.9,-99.9,-99.9,0,0,100,28.91,28.78,0,-999,0,0.00
2013-8-6,82.3,63.6,47.4,-99.9,-99.9,-99.9,0,0,100,28.97,28.88,0,-999,0,0.00
2013-8-7,82.1,68.3,57.5,-99.9,-99.9,-99.9,0,0,100,29.00,28.88,0,-999,0,0.00
2013-8-8,86.2,75.2,68.4,-99.9,-99.9,-99.9,0,0,100,28.91,28.81,0,-999,0,0.00
2013-8-9,80.2,74.0,70.0,-99.9,-99.9,-99.9,0,0,100,28.84,28.62,0,-999,0,0.00
2013-8-10,80.2,68.3,54.4,-99.9,-99.9,-99.9,0,0,100,28.91,28.68,0,-999,0,0.00
2013-8-11,80.8,62.8,48.2,-99.9,-99.9,-99.9,0,0,100,28.97,28.84,0,-999,0,0.00
2013-8-12,83.6,66.7,53.0,-99.9,-99.9,-99.9,0,0,100,28.91,28.75,0,-999,0,0.00
2013-8-13,73.2,65.4,60.5,-99.9,-99.9,-99.9,0,0,100,28.78,28.52,0,-999,0,0.00
2013-8-14,70.3,59.7,51.5,-99.9,-99.9,-99.9,0,0,100,28.84,28.59,0,-999,0,0.00
2013-8-15,75.1,59.1,46.0,-99.9,-99.9,-99.9,0,0,100,28.97,28.81,0,-999,0,0.00
2013-8-16,81.1,62.4,48.2,-99.9,-99.9,-99.9,0,0,100,29.04,28.94,0,-999,0,0.00
2013-8-17,84.1,64.4,49.3,-99.9,-99.9,-99.9,0,0,100,29.13,29.04,0,-999,0,0.00
2013-8-18,75.9,64.2,54.5,-99.9,-99.9,-99.9,0,0,100,29.13,28.94,0,-999,0,0.00
2013-8-19,80.0,65.7,54.3,-99.9,-99.9,-99.9,0,0,100,28.94,28.81,0,-999,0,0.00
2013-8-20,86.5,67.9,52.9,-99.9,-99.9,-99.9,0,0,100,28.97,28.84,0,-999,0,0.00
2013-8-21,89.1,70.3,56.2,-99.9,-99.9,-99.9,0,0,100,29.04,28.88,0,-999,0,0.00
2013-8-22,90.4,73.2,58.6,-99.9,-99.9,-99.9,0,0,100,28.91,28.65,0,-999,0,0.00
2013-8-23,78.7,66.4,51.8,-99.9,-99.9,-99.9,0,0,100,29.00,28.72,0,-999,0,0.00
2013-8-24,81.3,61.2,44.9,-99.9,-99.9,-99.9,0,0,100,29.16,29.00,0,-999,0,0.00
2013-8-25,84.1,64.0,46.8,-99.9,-99.9,-99.9,0,0,100,29.23,28.97,0,-999,0,0.00
2013-8-26,78.1,67.5,61.8,-99.9,-99.9,-99.9,0,0,100,29.04,28.72,0,-999,0,0.00
2013-8-27,83.6,71.5,65.3,-99.9,-99.9,-99.9,0,0,100,28.78,28.68,0,-999,0,0.00
2013-8-28,91.7,72.4,61.1,-99.9,-99.9,-99.9,0,0,100,28.81,28.68,0,-999,0,0.00
2013-8-29,78.2,68.9,60.8,-99.9,-99.9,-99.9,0,0,100,28.91,28.75,0,-999,0,0.00
2013-8-30,84.4,71.3,63.8,-99.9,-99.9,-99.9,0,0,100,28.88,28.65,0,-999,0,0.00
2013-8-31,79.6,71.5,65.0,-99.9,-99.9,-99.9,0,0,100,28.68,28.59,0,-999,0,0.00
2013-9-1,86.0,73.6,67.7,-99.9,-99.9,-99.9,0,0,100,28.72,28.65,0,-999,0,0.00
2013-9-2,82.7,72.2,64.3,-99.9,-99.9,-99.9,0,0,100,28.68,28.52,0,-999,0,0.00
2013-9-3,71.8,65.3,59.1,-99.9,-99.9,-99.9,0,0,100,28.72,28.56,0,-999,0,0.00
2013-9-4,77.2,65.4,57.3,-99.9,-99.9,-99.9,0,0,100,28.81,28.68,0,-999,0,0.00
2013-9-5,73.5,60.8,46.6,-99.9,-99.9,-99.9,0,0,100,29.00,28.72,0,-999,0,0.00
2013-9-6,72.3,52.7,39.2,-99.9,-99.9,-99.9,0,0,100,29.10,28.91,0,-999,0,0.00
2013-9-7,76.1,57.9,44.1,-99.9,-99.9,-99.9,0,0,100,28.94,28.68,0,-999,0,0.00
2013-9-8,72.0,59.0,44.0,-99.9,-99.9,-99.9,0,0,100,28.94,28.62,0,-999,0,0.00
2013-9-9,69.1,53.9,38.8,-99.9,-99.9,-99.9,0,0,100,29.07,28.91,0,-999,0,0.00
2013-9-10,78.2,66.0,52.5,-99.9,-99.9,-99.9,0,0,100,28.94,28.81,0,-999,0,0.00
2013-9-11,95.0,77.3,63.9,-99.9,-99.9,-99.9,0,0,100,28.91,28.78,0,-999,0,0.00
2013-9-12,78.2,78.2,78.2,-99.9,-99.9,-99.9,0,0,100,28.88,28.88,0,-999,0,0.00
2013-9-13,139.1,71.8,53.7,-99.9,-99.9,-99.9,0,0,100,28.88,28.56,0,-999,0,0.00
2013-9-14,60.4,54.7,47.9,-99.9,-99.9,-99.9,0,0,100,28.91,28.65,0,-999,0,0.00
2013-9-15,68.5,53.8,39.6,-99.9,-99.9,-99.9,0,0,100,29.00,28.84,0,-999,0,0.00
2013-9-16,65.5,53.3,39.7,-99.9,-99.9,-99.9,0,0,100,29.10,28.81,0,-999,0,0.00
2013-9-17,67.5,47.9,33.9,-99.9,-99.9,-99.9,0,0,100,29.26,29.07,0,-999,0,0.00
2013-9-18,74.0,52.5,37.5,-99.9,-99.9,-99.9,0,0,100,29.16,28.94,0,-999,0,0.00
2013-9-19,79.3,56.8,41.0,-99.9,-99.9,-99.9,0,0,100,28.97,28.84,0,-999,0,0.00
2013-9-20,83.7,61.0,44.5,-99.9,-99.9,-99.9,0,0,100,28.91,28.75,0,-999,0,0.00
2013-9-21,76.0,63.1,50.2,-99.9,-99.9,-99.9,0,0,100,28.81,28.43,0,-999,0,0.00
2013-9-22,66.2,57.5,48.7,-99.9,-99.9,-99.9,0,0,100,28.72,28.40,0,-999,0,0.00
2013-9-23,59.6,48.6,39.9,-99.9,-99.9,-99.9,0,0,100,28.88,28.68,0,-999,0,0.00
2013-9-24,67.3,48.7,34.8,-99.9,-99.9,-99.9,0,0,100,28.84,28.68,0,-999,0,0.00
2013-9-25,72.1,53.1,37.7,-99.9,-99.9,-99.9,0,0,100,28.78,28.68,0,-999,0,0.00
2013-9-26,74.3,54.2,43.0,-99.9,-99.9,-99.9,0,0,100,28.94,28.78,0,-999,0,0.00
2013-9-27,60.3,50.1,40.6,-99.9,-99.9,-99.9,0,0,100,29.10,28.91,0,-999,0,0.00
2013-9-28,79.2,55.0,39.2,-99.9,-99.9,-99.9,0,0,100,29.16,29.04,0,-999,0,0.00
2013-9-29,79.3,57.6,43.5,-99.9,-99.9,-99.9,0,0,100,29.04,28.84,0,-999,0,0.00
2013-9-30,79.0,57.6,42.2,-99.9,-99.9,-99.9,0,0,100,28.91,28.75,0,-999,0,0.00
2013-10-1,80.4,58.3,42.8,-99.9,-99.9,-99.9,0,0,100,28.84,28.68,0,-999,0,0.00
2013-10-2,73.2,58.2,46.1,-99.9,-99.9,-99.9,0,0,100,28.84,28.68,0,-999,0,0.00
2013-10-3,74.5,56.9,42.8,-99.9,-99.9,-99.9,0,0,100,28.94,28.81,0,-999,0,0.00
2013-10-4,60.2,55.4,51.2,-99.9,-99.9,-99.9,0,0,100,28.91,28.81,0,-999,0,0.00
2013-10-5,61.5,58.7,56.0,-99.9,-99.9,-99.9,0,0,100,28.94,28.84,0,-999,0,0.00
2013-10-6,60.3,57.7,55.7,-99.9,-99.9,-99.9,0,0,100,28.94,28.81,0,-999,0,0.00
2013-10-7,76.2,63.0,50.9,-99.9,-99.9,-99.9,0,0,100,28.84,28.49,0,-999,0,0.00
2013-10-8,68.6,51.9,40.3,-99.9,-99.9,-99.9,0,0,100,29.16,28.75,0,-999,0,0.00
2013-10-9,72.0,49.5,35.7,-99.9,-99.9,-99.9,0,0,100,29.29,29.10,0,-999,0,0.00
2013-10-10,66.5,49.7,37.7,-99.9,-99.9,-99.9,0,0,100,29.13,28.94,0,-999,0,0.00
2013-10-11,77.2,56.1,44.2,-99.9,-99.9,-99.9,0,0,100,28.97,28.84,0,-999,0,0.00
2013-10-12,76.9,54.7,40.1,-99.9,-99.9,-99.9,0,0,100,29.16,28.94,0,-999,0,0.00
2013-10-13,75.7,56.9,45.0,-99.9,-99.9,-99.9,0,0,100,29.23,29.10,0,-999,0,0.00
2013-10-14,69.0,54.4,40.9,-99.9,-99.9,-99.9,0,0,100,29.16,29.00,0,-999,0,0.00
2013-10-15,65.2,58.2,50.0,-99.9,-99.9,-99.9,0,0,100,29.07,28.91,0,-999,0,0.00
2013-10-16,64.2,56.7,48.7,-99.9,-99.9,-99.9,0,0,100,28.91,28.65,0,-999,0,0.00
2013-10-17,73.6,60.3,54.0,-99.9,-99.9,-99.9,0,0,100,28.68,28.43,0,-999,0,0.00
2013-10-18,60.5,53.4,39.7,-99.9,-99.9,-99.9,0,0,100,28.75,28.36,0,-999,0,0.00
2013-10-19,71.0,51.0,35.7,-99.9,-99.9,-99.9,0,0,100,28.78,28.49,0,-999,0,0.00
2013-10-20,58.4,48.4,38.3,-99.9,-99.9,-99.9,0,0,100,28.81,28.46,0,-999,0,0.00
2013-10-21,70.5,51.5,36.6,-99.9,-99.9,-99.9,0,0,100,28.91,28.68,0,-999,0,0.00
2013-10-22,52.9,47.5,33.7,-99.9,-99.9,-99.9,0,0,100,28.72,28.52,0,-999,0,0.00
2013-10-23,52.8,40.6,30.6,-99.9,-99.9,-99.9,0,0,100,28.62,28.40,0,-999,0,0.00
2013-10-24,48.2,40.3,32.3,-99.9,-99.9,-99.9,0,0,100,28.68,28.49,0,-999,0,0.00
2013-10-25,49.1,39.6,32.1,-99.9,-99.9,-99.9,0,0,100,28.94,28.68,0,-999,0,0.00
2013-10-26,49.2,42.6,35.0,-99.9,-99.9,-99.9,0,0,100,28.94,28.59,0,-999,0,0.00
2013-10-27,49.2,42.3,32.7,-99.9,-99.9,-99.9,0,0,100,28.84,28.56,0,-999,0,0.00
2013-10-28,58.1,38.8,29.4,-99.9,-99.9,-99.9,0,0,100,29.13,28.81,0,-999,0,0.00
2013-10-29,55.0,34.6,24.2,-99.9,-99.9,-99.9,0,0,100,29.26,29.10,0,-999,0,0.00
2013-10-30,48.9,37.7,30.0,-99.9,-99.9,-99.9,0,0,100,29.10,28.97,0,-999,0,0.00
2013-10-31,56.8,44.1,31.4,-99.9,-99.9,-99.9,0,0,100,29.00,28.62,0,-999,0,0.00
2013-11-1,66.0,59.6,49.3,-99.9,-99.9,-99.9,0,0,100,28.52,28.20,0,-999,0,0.00
2013-11-2,62.8,48.1,36.2,-99.9,-99.9,-99.9,0,0,100,28.59,28.40,0,-999,0,0.00
2013-11-3,51.7,37.3,25.9,-99.9,-99.9,-99.9,0,0,100,29.23,28.59,0,-999,0,0.00
2013-11-4,50.0,31.6,21.2,-99.9,-99.9,-99.9,0,0,100,29.45,29.20,0,-999,0,0.00
2013-11-5,55.0,38.4,25.9,-99.9,-99.9,-99.9,0,0,100,29.42,29.20,0,-999,0,0.00
2013-11-6,61.0,48.5,37.4,-99.9,-99.9,-99.9,0,0,100,29.23,28.75,0,-999,0,0.00
2013-11-7,134.2,47.7,36.1,-99.9,-99.9,-99.9,0,0,100,28.75,28.56,0,-999,0,0.00
2013-11-8,46.4,35.0,29.0,-99.9,-99.9,-99.9,0,0,100,28.91,28.62,0,-999,0,0.00
2013-11-9,43.5,34.7,24.1,-99.9,-99.9,-99.9,0,0,100,29.00,28.68,0,-999,0,0.00
2013-11-10,48.0,40.7,34.0,-99.9,-99.9,-99.9,0,0,100,28.72,28.52,0,-999,0,0.00
2013-11-11,50.9,41.6,34.6,-99.9,-99.9,-99.9,0,0,100,28.94,28.65,0,-999,0,0.00
2013-11-12,42.6,30.7,22.4,-99.9,-99.9,-99.9,0,0,100,29.00,28.65,0,-999,0,0.00
2013-11-13,39.5,27.2,18.9,-99.9,-99.9,-99.9,0,0,100,29.10,28.91,0,-999,0,0.00
2013-11-14,51.1,32.6,22.5,-99.9,-99.9,-99.9,0,0,100,28.91,28.81,0,-999,0,0.00
2013-11-15,147.5,38.9,23.8,-99.9,-99.9,-99.9,0,0,100,28.97,28.84,0,-999,0,0.00
2013-11-16,170.6,33.6,34.4,-99.9,-99.9,-99.9,0,0,100,29.07,28.84,0,-999,0,0.00
2013-11-17,56.7,48.5,34.4,-99.9,-99.9,-99.9,0,0,100,28.97,28.75,0,-999,0,0.00
2013-11-18,149.9,53.7,42.2,-99.9,-99.9,-99.9,0,0,100,28.75,28.33,0,-999,0,0.00
2013-11-19,146.2,35.9,27.9,-99.9,-99.9,-99.9,0,0,100,29.13,28.52,0,-999,0,0.00
2013-11-20,129.1,30.7,21.0,-99.9,-99.9,-99.9,0,0,100,29.39,29.13,0,-999,0,0.00
2013-11-21,149.3,37.3,18.7,-99.9,-99.9,-99.9,0,0,100,29.39,29.16,0,-999,0,0.00
2013-11-22,147.9,41.8,36.8,-99.9,-99.9,-99.9,0,0,100,29.20,28.65,0,-999,0,0.00
2013-11-23,146.2,36.8,25.2,-99.9,-99.9,-99.9,0,0,100,28.81,28.59,0,-999,0,0.00
2013-11-24,144.8,28.8,17.3,-99.9,-99.9,-99.9,0,0,100,29.04,28.65,0,-999,0,0.00
2013-11-25,145.2,29.1,12.5,-99.9,-99.9,-99.9,0,0,100,29.20,28.97,0,-999,0,0.00
2013-11-26,146.6,38.3,28.0,-99.9,-99.9,-99.9,0,0,100,29.07,28.68,0,-999,0,0.00
2013-11-27,148.9,43.1,31.4,-99.9,-99.9,-99.9,0,0,100,28.72,28.17,0,-999,0,0.00
2013-11-28,32.7,21.3,-19.5,-99.9,-99.9,-99.9,0,0,100,29.20,28.36,0,-999,0,0.00
2013-11-29,38.5,23.9,16.1,-99.9,-99.9,-99.9,0,0,100,29.49,29.16,0,-999,0,0.00
2013-11-30,37.1,24.2,12.2,-99.9,-99.9,-99.9,0,0,100,29.52,29.10,0,-999,0,0.00
2013-12-1,45.9,35.3,29.4,-99.9,-99.9,-99.9,0,0,100,29.13,28.75,0,-999,0,0.00
2013-12-2,40.8,35.2,30.1,-99.9,-99.9,-99.9,0,0,100,28.81,28.65,0,-999,0,0.00
2013-12-3,40.8,33.3,27.0,-99.9,-99.9,-99.9,0,0,100,28.78,28.65,0,-999,0,0.00
2013-12-4,47.8,32.1,23.6,-99.9,-99.9,-99.9,0,0,100,28.94,28.75,0,-999,0,0.00
2013-12-5,66.8,47.9,31.8,-99.9,-99.9,-99.9,0,0,100,28.91,28.65,0,-999,0,0.00
2013-12-6,54.2,40.2,32.3,-99.9,-99.9,-99.9,0,0,100,28.94,28.68,0,-999,0,0.00
2013-12-7,40.4,31.6,26.1,-99.9,-99.9,-99.9,0,0,100,29.23,28.88,0,-999,0,0.00
2013-12-8,30.6,27.0,21.7,-99.9,-99.9,-99.9,0,0,100,29.33,29.16,0,-999,0,0.00
2013-12-9,39.6,32.8,26.3,-99.9,-99.9,-99.9,0,0,100,29.20,28.65,0,-999,0,0.00
2013-12-10,34.4,28.7,19.4,-99.9,-99.9,-99.9,0,0,100,28.75,28.59,0,-999,0,0.00
2013-12-11,34.5,24.8,17.0,-99.9,-99.9,-99.9,0,0,100,28.97,28.75,0,-999,0,0.00
2013-12-12,32.0,21.4,14.9,-99.9,-99.9,-99.9,0,0,100,29.07,28.75,0,-999,0,0.00
2013-12-13,26.3,20.6,13.7,-99.9,-99.9,-99.9,0,0,100,29.16,28.68,0,-999,0,0.00
2013-12-14,22.4,16.0,11.2,-99.9,-99.9,-99.9,0,0,100,29.29,28.75,0,-999,0,0.00
2013-12-15,29.6,25.9,22.3,-99.9,-99.9,-99.9,0,0,100,28.75,28.30,0,-999,0,0.00
2013-12-16,32.1,20.5,8.8,-99.9,-99.9,-99.9,0,0,100,28.94,28.49,0,-999,0,0.00
2013-12-17,22.4,13.5,5.2,-99.9,-99.9,-99.9,0,0,100,28.97,28.72,0,-999,0,0.00
2013-12-18,28.2,22.6,15.1,-99.9,-99.9,-99.9,0,0,100,28.84,28.68,0,-999,0,0.00
2013-12-19,46.3,31.8,24.5,-99.9,-99.9,-99.9,0,0,100,28.88,28.72,0,-999,0,0.00
2013-12-20,45.9,36.3,31.8,-99.9,-99.9,-99.9,0,0,100,28.88,28.65,0,-999,0,0.00
2013-12-21,48.8,39.5,35.6,-99.9,-99.9,-99.9,0,0,100,28.72,28.62,0,-999,0,0.00
2013-12-22,59.9,45.3,34.8,-99.9,-99.9,-99.9,0,0,100,28.75,28.46,0,-999,0,0.00
2013-12-23,48.4,40.9,32.6,-99.9,-99.9,-99.9,0,0,100,28.94,28.72,0,-999,0,0.00
2013-12-24,39.6,28.4,19.7,-99.9,-99.9,-99.9,0,0,100,29.07,28.84,0,-999,0,0.00
2013-12-25,29.0,19.6,12.9,-99.9,-99.9,-99.9,0,0,100,29.29,29.04,0,-999,0,0.00
2013-12-26,30.4,27.4,21.5,-99.9,-99.9,-99.9,0,0,100,29.13,28.84,0,-999,0,0.00
2013-12-27,32.8,28.3,22.2,-99.9,-99.9,-99.9,0,0,100,29.04,28.94,0,-999,0,0.00
2013-12-28,39.2,29.5,21.0,-99.9,-99.9,-99.9,0,0,100,28.97,28.78,0,-999,0,0.00
2013-12-29,39.2,32.1,25.5,-99.9,-99.9,-99.9,0,0,100,28.81,28.33,0,-999,0,0.00
2013-12-30,34.0,26.1,14.0,-99.9,-99.9,-99.9,0,0,100,28.97,28.40,0,-999,0,0.00
2013-12-31,25.3,18.4,12.6,-99.9,-99.9,-99.9,0,0,100,28.94,28.75,0,-999,0,0.00
2014-1-1,36.0,19.6,13.9,-99.9,-99.9,-99.9,0,0,100,29.10,28.91,0,-999,0,0.00
2014-1-2,19.3,12.2,6.3,-99.9,-99.9,-99.9,0,0,100,29.07,28.62,0,-999,0,0.00